GAOFEN 11 04

导读 | 豆包AI

GAOFEN 11 04(高分十一号04星)是中国研制的光学遥感卫星,隶属于高分辨率对地观测系统国家科技重大专项,于北京时间2022年12月27日在太原卫星发射中心,由长征四号乙运载火箭发射升空,顺利进入预定轨道。该卫星地面像元分辨率最高可达亚米级,主要应用于国土普查、城市规划、土地确权、路网设计、农作物估产和防灾减灾等领域,可为“一带一路”等国家重大战略实施提供信息保障。

基本信息
目录编号:
54818
目录名称:
GAOFEN 11 04
国际标识:
2022-176A
轨道中心:
EARTH
卫星名称:
GAOFEN 11 04
卫星全名:
--
卫星状态:
在轨 (已飞行1173 天)
发射日期:
2022-12-27 UTC
国别 :
中国 (CN)
星等 :
--
轨道信息
数据来源 国际轨道数据
星历时间: 2026-03-13T22:53:49+0800
11小时前
查看轨道信息
半长轴: 6872.347km
偏心率: 0.0001922
轨道倾角: 97.406°
近地点辐角 336.222°
升交点赤经 206.948°
平近点角 23.892°
近地点: 492.889km
远地点: 495.531km
周期: 94.497分钟
每日圈数: 15.238605
详细信息
使用方式:
暂无
2D轨道图
3D轨道图
轨道高度分析图
轨道倾角分析图
轨道综合分析图
查看轨道综合分析图